Flag for United Kingdom Weather past 2 weeks in Newcastle upon Tyne, England, United Kingdom

Now
63 °F

Scattered clouds.


Feels Like: 63 °F
Forecast: 41 / 62 °F
Wind: 12 mph from West

Location: Newcastle

Current Time: Oct 1, 2014 at 1:42:05 PM

Latest Report: Oct 1, 2014 at 12:50 PM


Visibility: N/A

Pressure: 30.12 "Hg

Humidity: 77%

Dew point: 55 °F

Location of Newcastle upon TyneLocation

Historic Weather in Newcastle upon Tyne — Graph

°F

Newcastle upon Tyne temperature yesterday

Maximum temperature yesterday: 70 °F (at 3:20 PM)
Minimum temperature yesterday: 48 °F (at 6:20 AM)
Average temperature yesterday: 58 °F

Past Weeks' High & Low Weather Summary

 TemperatureHumidityPressure
High70 °F (Sep 30, 3:20 PM)100% (Sep 17, 8:50 AM)30.33 "Hg (Sep 17, 8:50 AM)
Low41 °F (Sep 21, 9:50 PM)45% (Sep 26, 2:50 PM)29.74 "Hg (Sep 24, 5:20 AM)
Average56 °F85%30.05 "Hg
* Reported Sep 16 12:20 PM — Oct 1 12:50 PM, Newcastle upon Tyne, Weather by CustomWeather, © 2014

Note: Actual official high and low records may vary slightly from our data, if they occured in-between our weather recording intervals... More about our weather records

Advertising

Newcastle upon Tyne weather history for previous 24 hours

 ConditionsComfort  
Time TempWeatherWind HumidityBarometerVisibility
12:50 PM
Oct 1
63 °FScattered clouds.12 mph77%30.12 "HgN/A
12:20 PM63 °FScattered clouds.13 mph77%30.12 "HgN/A
11:50 AM63 °FScattered clouds.15 mph73%30.12 "HgN/A
11:20 AM61 °FScattered clouds.12 mph77%30.12 "HgN/A
10:50 AM61 °FScattered clouds.13 mph77%30.09 "HgN/A
10:20 AM61 °FScattered clouds.3 mph77%30.09 "HgN/A
9:50 AM61 °FPassing clouds.3 mph72%30.09 "HgN/A
9:20 AM59 °FPassing clouds.5 mph77%30.09 "HgN/A
8:50 AM57 °FPassing clouds.6 mph82%30.07 "HgN/A
8:20 AM57 °FPassing clouds.6 mph82%30.07 "HgN/A
7:50 AM57 °FPassing clouds.10 mph82%30.07 "HgN/A
7:20 AM57 °FPassing clouds.5 mph82%30.04 "HgN/A
6:50 AM57 °FPassing clouds.No wind88%30.04 "HgN/A
6:20 AM57 °FPassing clouds.5 mph94%30.04 "HgN/A
5:50 AM57 °FPassing clouds.7 mph88%30.04 "HgN/A
5:20 AM59 °FPassing clouds.7 mph88%30.04 "HgN/A
4:50 AM59 °FPassing clouds.7 mph88%30.01 "HgN/A
4:20 AM59 °FPassing clouds.5 mph88%30.01 "HgN/A
3:50 AM59 °FPassing clouds.3 mph88%30.01 "HgN/A
3:20 AM57 °FPassing clouds.3 mph94%30.01 "HgN/A
2:50 AM59 °FPassing clouds.6 mph88%30.01 "HgN/A
2:20 AM59 °FPassing clouds.7 mph88%30.01 "HgN/A
1:50 AM59 °FPassing clouds.9 mph88%30.01 "HgN/A
1:20 AM59 °FPassing clouds.9 mph88%30.01 "HgN/A
12:50 AM59 °FPassing clouds.6 mph88%30.01 "HgN/A
12:20 AM59 °FPassing clouds.9 mph88%30.04 "HgN/A
11:50 PM
Sep 30
59 °FPassing clouds.6 mph88%30.04 "HgN/A
11:20 PM59 °FSprinkles. Passing clouds.No wind88%30.04 "HgN/A
10:50 PM59 °FSprinkles. Passing clouds.5 mph88%30.04 "HgN/A
10:20 PM61 °FLight rain. Passing clouds.5 mph77%30.04 "HgN/A
9:50 PM61 °FLight rain. Passing clouds.3 mph77%30.07 "HgN/A
9:20 PM61 °FLight rain. Passing clouds.5 mph77%30.07 "HgN/A
8:50 PM61 °FPassing clouds.3 mph72%30.07 "HgN/A
8:20 PM61 °FPassing clouds.3 mph72%30.07 "HgN/A
7:50 PM61 °FPassing clouds.5 mph72%30.07 "HgN/A
7:20 PM61 °FPassing clouds.6 mph72%30.07 "HgN/A
6:50 PM61 °FPassing clouds.5 mph72%30.07 "HgN/A
6:20 PM63 °FPassing clouds.6 mph68%30.09 "HgN/A
5:50 PM64 °FPassing clouds.9 mph64%30.09 "HgN/A
5:20 PM64 °FPassing clouds.8 mph64%30.07 "HgN/A
4:50 PM66 °FPassing clouds.8 mph60%30.07 "HgN/A
3:50 PM68 °FPassing clouds.9 mph60%30.09 "HgN/A
3:20 PM70 °FScattered clouds.9 mph57%30.09 "HgN/A
2:50 PM68 °FScattered clouds.7 mph60%30.09 "HgN/A
2:20 PM66 °FPassing clouds.8 mph64%30.09 "HgN/A
1:50 PM66 °FScattered clouds.6 mph64%30.09 "HgN/A
1:20 PM66 °FScattered clouds.8 mph68%30.09 "HgN/A
Weather by CustomWeather, © 2014

See weather overviewHow to use our weather pages